Simultaneous Nadir Overpasses (SNOs) Predictions

Prediction of SNOs between GOES-15 and NOAA-20 Satellite Orbit:

Table of predicted SNOs for the next 14.0 days since TLE Epoch: 5/4/2024
Index Date Time (GOES-15) GOES-15 Lat,Lon NOAA-20 Lat,Lon Distance(km) Time Diff (sec)
1 05/04/2024 21:19:17 0.08, 61.47 0.15, 61.16 35.21 80
2 05/05/2024 21:03:11 0.08, 61.48 -0.84, 65.70 480.42 80
3 05/07/2024 09:22:25 -0.07, 61.51 -0.32, 60.39 127.99 80
4 05/08/2024 09:06:19 -0.07, 61.53 0.68, 64.93 387.16 80
5 05/09/2024 21:25:25 0.05, 61.55 0.45, 59.66 214.93 80
6 05/10/2024 21:09:18 0.06, 61.57 -0.54, 64.20 300.12 80
7 05/12/2024 09:28:32 -0.04, 61.61 -0.66, 58.90 308.76 80
8 05/13/2024 09:12:25 -0.05, 61.63 0.34, 63.44 206.12 80
9 05/14/2024 21:31:31 0.04, 61.65 0.79, 58.17 396.60 80
10 05/15/2024 21:15:24 0.05, 61.67 -0.16, 62.72 118.50 80
11 05/17/2024 09:34:38 -0.03, 61.71 -0.97, 57.41 490.05 80
